Location: Sungai Kamana Besar
(2.6333°N, 113.4333°E)
Time: 13:43:27
(UTC+00:00)

Landsat 4 - Visible Passes

Search period start: 07 October 2022 00:00
Search period end: 17 October 2022 00:00
Orbit: 494 x 513 km, 98.3° (Epoch: 06 October)

Date Brightness Start Highest point End Pass type
(mag) Time Alt. Az. Time Alt. Az. Time Alt. Az.
08 Oct 3.9 21:51:30 10° N 21:55:02 45° WNW 21:58:36 10° SSW visible
09 Oct 3.7 21:32:57 10° NNE 21:36:38 82° ESE 21:40:21 10° S visible
10 Oct 5.3 21:14:47 10° NNE 21:18:13 37° ESE 21:21:41 10° S visible
11 Oct 6.6 20:57:07 10° NE 20:59:48 19° ESE 21:02:28 10° SSE visible
14 Oct 3.8 21:34:11 10° NNE 21:37:52 79° ESE 21:41:36 10° S visible
15 Oct 5.4 21:15:57 10° NE 21:19:22 36° ESE 21:22:49 10° S visible
16 Oct 6.7 20:58:15 10° ENE 21:00:52 18° ESE 21:03:29 10° SSE visible
